Content
SEND FEEDBACK

Daily
Averages
Monthly
Summary
United States of America

COLLINS, MISSISSIPPI


Home > North America > United States > Mississippi
Elevation: 342 feet     Latitude: 31 38N     Longitude: 089 34W

WEATHER
 
SELECT A DAY
Number of Records: 446,273;   Date Range: 1/1/95 - 7/22/14
 
SHARE

PRINT THIS DATA

[ ← Previous Day ]
WEATHER ALMANAC - FEBRUARY 13, 2013
[ Next Day → ]
[ °C ]   °F
Weather ElementAverageHighLow
Temperature47.7 °F53.6 °F (12:55 am)35.6 °F (10:55 pm)
Dewpoint40.4 °F50 °F (12:55 am)32 °F (10:55 pm)
Humidity76.5 %93 % (11:15 pm)58 % (1:55 pm)
Barometer29.98 in30.08 in (9:55 pm)29.83 in (1:55 am)
Wind Speed6.6 mph12.7 mph (12:35 pm)
Wind Gust18.4 mph (8:55 am)
Weather ElementAverage
Visibility9.9 mi
Wind DirectionWNW (286.2 °)

Weather ElementTotal
Precipitation---
Heating Degree Days20.4 (Base 65)
Averaged from 69 records on February 13, 2013
WEATHER CONDITIONS BREAKOUT
WIND DIRECTION BREAKOUT
WEATHER BY HOUR - FEBRUARY 13, 2013
[ °C ]   °F
Local TimeTemperatureDewpointHumidityBarometerVisibilityWind DirectionWind SpeedGust SpeedPrecipitationEventsConditions
12:55 AM53.6 °F50.0 °F88 %29.85 in10.0 miWest (270°)9.2 mphOvercast
1:15 AM53.6 °F50.0 °F88 %29.85 in10.0 miWest (270°)6.9 mphOvercast
1:35 AM53.6 °F48.2 °F82 %29.84 in10.0 miWest (270°)6.9 mphMostly Cloudy
1:55 AM53.6 °F48.2 °F82 %29.83 in10.0 miWSW (250°)4.6 mphScattered Clouds
2:15 AM53.6 °F50.0 °F88 %29.85 in10.0 miWSW (240°)6.9 mphMostly Cloudy
2:35 AM53.6 °F48.2 °F82 %29.86 in10.0 miWSW (250°)8.1 mphMostly Cloudy
2:55 AM53.6 °F48.2 °F82 %29.88 in10.0 miWest (270°)6.9 mphMostly Cloudy
3:15 AM51.8 °F48.2 °F88 %29.88 in10.0 miWest (260°)5.8 mphPartly Cloudy
3:35 AM51.8 °F46.4 °F82 %29.88 in10.0 miWest (280°)8.1 mphScattered Clouds
3:55 AM51.8 °F46.4 °F82 %29.89 in10.0 miWest (280°)8.1 mph16.1 mphClear
4:15 AM51.8 °F46.4 °F82 %29.89 in10.0 miWest (270°)5.8 mphPartly Cloudy
4:35 AM50.0 °F44.6 °F82 %29.87 in10.0 miCalmPartly Cloudy
4:55 AM50.0 °F44.6 °F82 %29.87 in10.0 miWNW (290°)3.5 mphPartly Cloudy
5:15 AM50.0 °F44.6 °F82 %29.88 in10.0 miWNW (290°)4.6 mphMostly Cloudy
5:35 AM50.0 °F44.6 °F82 %29.89 in10.0 miWNW (290°)8.1 mphOvercast
5:55 AM50.0 °F44.6 °F82 %29.91 in10.0 miWest (280°)6.9 mphOvercast
6:15 AM48.2 °F44.6 °F87 %29.92 in10.0 miWest (280°)5.8 mphOvercast
6:35 AM48.2 °F44.6 °F87 %29.92 in10.0 miWest (280°)6.9 mphOvercast
6:55 AM48.2 °F42.8 °F82 %29.93 in10.0 miWNW (290°)6.9 mphOvercast
7:15 AM48.2 °F42.8 °F82 %29.92 in10.0 miNW (310°)3.5 mphOvercast
7:35 AM48.2 °F42.8 °F82 %29.94 in10.0 miWest (280°)4.6 mphMostly Cloudy
8:15 AM48.2 °F44.6 °F87 %29.98 in10.0 miWest (280°)5.8 mphOvercast
8:35 AM48.2 °F42.8 °F82 %29.96 in10.0 miNW (320°)6.9 mphOvercast
8:55 AM46.4 °F42.8 °F87 %30.01 in10.0 miWNW (300°)9.2 mph18.4 mphOvercast
9:15 AM46.4 °F42.8 °F87 %30.00 in10.0 miWNW (300°)6.9 mphOvercast
9:35 AM46.4 °F42.8 °F87 %30.00 in10.0 miNW (310°)6.9 mphOvercast
9:55 AM46.4 °F42.8 °F87 %30.00 in10.0 miNNW (330°)10.4 mphOvercast
10:15 AM46.4 °F41.0 °F81 %30.01 in10.0 miNW (310°)6.9 mphOvercast
10:35 AM46.4 °F39.2 °F76 %30.00 in10.0 miNW (310°)6.9 mphOvercast
10:55 AM46.4 °F39.2 °F76 %29.99 in10.0 miWNW (300°)9.2 mphOvercast
11:15 AM48.2 °F39.2 °F71 %29.98 in10.0 miWNW (300°)5.8 mphOvercast
11:35 AM48.2 °F39.2 °F71 %29.98 in10.0 miNNW (330°)8.1 mphOvercast
11:55 AM48.2 °F39.2 °F71 %29.98 in10.0 miNW (320°)9.2 mphOvercast
12:15 PM48.2 °F39.2 °F71 %29.99 in10.0 miNW (320°)8.1 mph17.3 mphOvercast
12:35 PM48.2 °F39.2 °F71 %29.99 in10.0 miNW (320°)12.7 mphOvercast
12:55 PM48.2 °F39.2 °F71 %29.98 in10.0 miNW (310°)9.2 mphOvercast
1:15 PM50.0 °F39.2 °F66 %29.98 in10.0 miNW (310°)6.9 mphOvercast
1:35 PM50.0 °F37.4 °F62 %29.98 in10.0 miNW (310°)8.1 mphOvercast
1:55 PM51.8 °F37.4 °F58 %29.97 in10.0 miNW (320°)8.1 mphMostly Cloudy
2:15 PM51.8 °F37.4 °F58 %29.99 in10.0 miNW (320°)8.1 mphOvercast
2:35 PM50.0 °F37.4 °F62 %29.98 in10.0 miNW (310°)6.9 mphOvercast
2:55 PM51.8 °F37.4 °F58 %29.98 in10.0 miNW (320°)10.4 mph16.1 mphOvercast
3:15 PM51.8 °F39.2 °F62 %29.98 in10.0 miNNW (330°)9.2 mphOvercast
3:35 PM51.8 °F37.4 °F58 %29.98 in10.0 miNNW (330°)11.5 mphOvercast
3:55 PM51.8 °F37.4 °F58 %30.00 in10.0 miNNW (330°)6.9 mphOvercast
4:15 PM51.8 °F37.4 °F58 %30.00 in10.0 miNNW (330°)8.1 mphOvercast
4:35 PM50.0 °F37.4 °F62 %30.01 in10.0 miNNW (340°)11.5 mphOvercast
4:55 PM48.2 °F37.4 °F66 %30.00 in10.0 miNNW (340°)8.1 mphOvercast
5:15 PM48.2 °F37.4 °F66 %30.01 in10.0 miNNW (330°)9.2 mphOvercast
5:35 PM48.2 °F35.6 °F62 %30.02 in10.0 miNNW (330°)6.9 mphOvercast
5:55 PM48.2 °F37.4 °F66 %30.03 in10.0 miNNW (340°)5.8 mphOvercast
6:15 PM48.2 °F37.4 °F66 %30.03 in10.0 miNNW (340°)9.2 mphOvercast
6:35 PM46.4 °F37.4 °F71 %30.03 in10.0 miNNW (340°)6.9 mphOvercast
6:55 PM46.4 °F37.4 °F71 %30.04 in10.0 miNorth (350°)8.1 mphOvercast
7:15 PM46.4 °F37.4 °F71 %30.04 in10.0 miNorth (360°)5.8 mphOvercast
7:35 PM46.4 °F37.4 °F71 %30.04 in10.0 miNNW (330°)4.6 mphOvercast
7:55 PM44.6 °F37.4 °F76 %30.05 in10.0 miNNW (340°)6.9 mphOvercast
8:15 PM44.6 °F35.6 °F71 %30.05 in10.0 miNorth (350°)5.8 mphOvercast
8:35 PM44.6 °F35.6 °F71 %30.06 in10.0 miNNW (340°)4.6 mphMostly Cloudy
8:55 PM42.8 °F35.6 °F76 %30.06 in10.0 miNNW (330°)3.5 mphClear
9:15 PM41.0 °F35.6 °F81 %30.07 in10.0 miCalmClear
9:35 PM39.2 °F35.6 °F87 %30.07 in10.0 miCalmClear
9:55 PM37.4 °F33.8 °F87 %30.08 in9.0 miNNW (330°)3.5 mphClear
10:15 PM39.2 °F35.6 °F87 %30.08 in10.0 miNW (320°)3.5 mphClear
10:35 PM37.4 °F33.8 °F87 %30.08 in10.0 miCalmClear
10:55 PM35.6 °F32.0 °F87 %30.08 in6.0 miNW (320°)4.6 mphClear
11:15 PM37.4 °F35.6 °F93 %30.08 in10.0 miNNW (330°)5.8 mphClear
11:35 PM37.4 °F33.8 °F87 %30.08 in10.0 miNW (320°)3.5 mphClear
11:55 PM37.4 °F33.8 °F87 %30.08 in10.0 miCalmClear
Hourly data recorded from KPIB, located miles away from Collins, Mississippi







STORIES FROM OUR PARTNERS